Regional Weather Roundup
Issued by NWS

Home | Current Version | Previous Version | Text Only | Print | Product List | Glossary On
Versions: 1 2 3 4 5 6 7 8 9 10 11 12 13 14 15 16 17 18 19 20 21 22 23 24 25 26 27 28 29 30 31 32 33 34 35 36 37 38 39 40 41 42
000
ASPQ40 PGUM 280612
RWRPQ
WEATHER ROUNDUP FOR THE MARIANAS AND MICRONESIA
NATIONAL WEATHER SERVICE TIYAN GU
400 PM CHST SUN DEC 28 2014

GUZ001>004-280700-
MARIANA ISLANDS-

CITY           SKY/WX    TMP DP  RH WIND       PRES   REMARKS
GUAM AIRPORT   MOSUNNY   84  73  70 E14G22    29.80S HX  91
ANDERSEN AFB   MOSUNNY   82  75  78 E13       29.81R
ROTA AIRPORT   MOSUNNY   82  73  74 E14       29.82S
TINIAN AP      MOSUNNY   82  73  74 E13       29.80S
SAIPAN AP      MOSUNNY   84  73  70 E8G22     29.81S HX  91

$$

PMZ161-280700-
REPUBLIC OF PALAU-

CITY           SKY/WX    TMP DP  RH WIND       PRES   REMARKS
KOROR AP       CLOUDY    82  79  89 E13       29.70F HX  93
KOROR WSO      CLOUDY    82  77  83 SE10      29.69F HX  91

$$

PMZ171>174-280700-
FEDERATED STATES OF MICRONESIA-

CITY           SKY/WX    TMP DP  RH WIND       PRES   REMARKS
YAP AIRPORT    PTSUNNY   81  79  94 VRB3      29.74S
CHUUK AP       CLOUDY    84  75  74 NE10      29.72R HX  92
POHNPEI AP     NOT AVBL
POHNPEI WSO    CLOUDY    84  77  79 E8        29.74R HX  94
KOSRAE AP      NOT AVBL

$$

PMZ181-280700-
REPUBLIC OF THE MARSHALL ISLANDS-

CITY           SKY/WX    TMP DP  RH WIND       PRES   REMARKS
KWAJALEIN AP   MOCLDY    82  70  65 NE21      29.75R
MAJURO AP      NOT AVBL
MAJURO WSO     MOCLDY    84  77  79 NE13      29.72R HX  94

$$



USA.gov is the U.S. government's official web portal to all federal, state and local government web resources and services.